Погода Мыс Биллингс

Погода Мыс Биллингс : погода сейчас, прогноз погоды и архив. Всё, что Вы хотите узнать о погоде Мыс Биллингс!

Поиск расширенной информации на нашем сайте:

Другие новости

Новости СМИ2

Главная страница сайта

Новости сайта

03.07.2017

Напоминаем, что на нашем специализированном сайте Метеоцентр.Азия вы можете получить высокодетализированные автоматические прогнозы погоды по пунктам России, СНГ и мира в авиационном формате (включающие направление и скорость ветра, видимость, явления погоды, количество и форму облачности, нижнюю и верхнюю границу облачности).


Погода Мыс Биллингс - сегодня

Время (UTC), дата Ветер
(°,м/с) 
Видим.   Явления Облачность Т
(°С)
Тd
(°С)
f(%) Тe
(°С)
Pmin
(гПа)
dP
(гПа)
Po
(мм)
O2
(г/м3)
Тmin Tmax R s Состояние
почвы
18 21.11.17 270 (З) 4{06}  1000 м  ливневой снег  9/9 600 м кучево-дожд. 
[Cb cap]
-3.6 -4.7 92 -7  980.9  1.9  735  301  -4.1    10  неравномерный
сухой снег
100% 
21 21.11.17 270 (З) 10-12{12}  1000 м  ливневой снег  9/9 600 м кучево-дожд. 
[Cb cap]
-4.1 -5 93 -10  985.4  4.5  739  303           
00 22.11.17 270 (З) 12-15{15}  <0050 м  ливневой снег  9/9 600 м кучево-дожд. 
[Cb cap]
-4.3 -5.5 91 -11  990.2  4.8  742  304           
03 22.11.17 270 (З) 13-16{16}  <0050 м  ливневой снег  8/8 600 м кучево-дожд. 
[Cb cap]
-11.1 -12.4 90 -20  993  2.8  744  314           
06 22.11.17 230 (ЮЗ) 6{08}  2000 м  снег{ливн. осадки}  10/10 300 м 
[Ns]
-12.6 -13.9 90 -18  995.3  2.3  746  316    -3.9     
09 22.11.17 230 (ЮЗ) 7{09}  2000 м  снег  10/10 300 м 
[Ns]
-12.4 -13.7 90 -19  997.1  1.8  748  317           
12 22.11.17 230 (ЮЗ) 8-10{10}  2000 м  снег  10/10 300 м 
[Ns]
-13 -14.3 90 -20  998.5  1.4  749  318           
15 22.11.17 230 (ЮЗ) 7{09}  4000 м  слаб. снег  10/10 300 м 
[Ns]
-11.8 -13.1 90 -18  999.1  0.6  749  317           
18 22.11.17 230 (ЮЗ) 6{08}  4000 м  слаб. снег  10/10 300 м 
[Ns]
-12.6 -13.9 90 -18  1002.2  3.1  751  319  -13.8    0.9  неравномерный
сухой снег
100% 
21 22.11.17 320 (СЗ) 3{05}  20000 м  {снег}  4/4 600 м 
[Sc]
-16.6 -20.8 70 -20  1001.3  -0.9  751  324           
00 23.11.17 230 (ЮЗ) 3{05}  20000 м  {снег}  3/0 верхняя 
[Ci fib]
-17.4 -22.4 65 -21  1002.7  1.4  752  325           
03 23.11.17 230 (ЮЗ) 4{06}  20000 м    3/0 верхняя 
[Ci fib]
-17.6 -21.7 70 -23  1004.4  1.7  753  326           
06 23.11.17 270 (З) 4{06}  20000 м    4/0 верхняя 
[Ci fib]
-17.2 -20.6 75 -22  1006.5  2.1  755  326    -12.6  0.0     
09 23.11.17 270 (З) 3{05}  20000 м    3/0 
-20.2 -23.6 74 -25  1007.8  1.3  756  330           
12 23.11.17 270 (З) 2{04}  20000 м    ясно 
-18.9 -22.2 75 -22  1010.4  2.6  758  330           
15 23.11.17 270 (З) 4{06}  20000 м    ясно 
-16.8 -20.2 75 -22  1012  1.6  759  327           
18 23.11.17 270 (З) 4{06}  20000 м    ясно 
-15.6 -18.3 80 -20  1013  759  326  -20.8      неравномерный
сухой снег
100% 
21 23.11.17 270 (З) 2{04}  20000 м    ясно 
-20 -22.6 80 -23  1014.2  1.2  760  332           
00 24.11.17 230 (ЮЗ) 4{06}  20000 м  позёмок  8/0 средняя 
[Ac trans]
-20.2 -22.8 80 -26  1015.4  1.2  761  333           
03 24.11.17 230 (ЮЗ) 6{08}  20000 м  позёмок  8/0 средняя 
[Ac trans]
-22.2 -24.7 80 -30  1016.7  1.3  762  336           
06 24.11.17 230 (ЮЗ) 8-10{10}  20000 м  позёмок  8/0 средняя 
[Ac trans]
-20 -21.9 85 -29  1018  1.3  763  333    -15.6       
09 24.11.17 230 (ЮЗ) 7{09}  4000 м  слаб. снег  10/0 средняя 
[As op]
-17 -8.3 100 -24  1020.1  2.1  765  330           
12 24.11.17 180 (Ю) 6{08}  4000 м  слаб. снег  10/0 средняя 
[As op]
-17.4 -18.6 90 -24  1022.2  2.1  766  331           
15 24.11.17 180 (Ю) 3{05}  10 км  {снег}  4/0 средняя 
[Ac trans]
-18.8 -21.4 80 -23  1022.3  0.1  766  333           
18 24.11.17 270 (З) 2{04}  10 км  {снег}  ясно 
-21.6 -24.8 75 -25  1020.8  -1.5  765  337  -21.9    0.4  10  равномерный
сухой снег
100% 
Время (UTC), дата Ветер
(°,м/с) 
Видим.   Явления Облачность Т
(°С)
Тd
(°С)
f(%) Тe
(°С)
Pmin
(гПа)
dP
(гПа)
Po
(мм)
O2
(г/м3)
Тmin Tmax R s Состояние
почвы

Для получения пояснительной информации подведите курсор к названию столбца.

ПОГОДА Мыс Биллингс - архив

Всё, что Вы хотите узнать о погоде Мыс Биллингс - удобно и подробно!

Выберите нужную дату (начиная с 1 января 2015* года) и нажмите кнопку "Найти".
Будут отображены архивные сводки погоды по пункту Мыс Биллингс, начиная с указанной даты.


Отображать данные в формате CSV (для использования в таблицах Excel)


Внимание! Наш архив погоды предназначен исключительно для личного некоммерческого использования в познавательных целях. Если Вам необходимы официальные справки о состоянии погоды (для производственных, юридических, коммерческих и т.п. целей), обращайтесь в органы Росгидромета.

*Примечание: данная дата относится к архиву по метеостанциям СССР (Россия, СНГ, Балтия).
Архив по метеостанциям Зарубежной Европы и Азии (кроме Китая) хранится 10 дней, по другим регионам земного шара (Китай, Африка, Америка, Австралия, Океания) - 1 день.

Мыс Биллингс - район местоположения метеостанции


Название, широта, долгота, высота метеостанции:
Мыс Биллингс 69.88°ш. 175.76°д. 3 м над ур. моря [Российская Федерация]

Дополнительная информация

В oтличие oт бoльшинства пoгoдных сайтoв мы публикуем пoдрoбную метеoинфoрмацию в детальнoм прoфессиoнальнoм фoрмате.

Характеристики температуры и влажнoсти вoздуха измеряются на высoте 2 м в тени вдали oт зданий и деревьев.
Скoрoсть ветра измеряется на высoте 10 м (на урoвне рoста челoвека скoрoсть ветра ниже в 1.5-2 раза). Если метеoстанция нахoдится в гoрoде или в лесу, тo скoрoсть ветра занижена на 2-4 м/с пo сравнению с oткрытым местoм. Скoрoсть ветра над акватoриями крупных рек и oзёр, а также на вершинах хoлмoв на 2-5 м/с выше, чем в oбычных услoвиях.
Атмoсфернoе давление в разных тoчках местнoсти мoжет значительнo oтличаться oт давления на метеoстанции, в зависимoсти oт услoвий рельефа (при пoдъёме на 10 м давление пoнижается примернo на 1 мм рт.ст.).